This is the latest recevied weather packets stored in our database for station/object F4ETJ-1. If no packets are shown the sender has not sent any weather packets the latest 10 day(s).
| Time | Temp. | Humidity | Pressure | Rain* | Wind** | Luminosity | Snow |
|---|---|---|---|---|---|---|---|
| 1778047843 | 10.56° C | 94% | 1006.6 hPa | 0.25 mm | - | - | - |
| 1778047484 | 10.56° C | 94% | 1006.6 hPa | 0 mm | - | - | - |
| 1778047124 | 10.56° C | 95% | 1006.6 hPa | 0 mm | - | - | - |
| 1778046763 | 10.56° C | 94% | 1006.6 hPa | 0 mm | - | - | - |
| 1778046402 | 10° C | 94% | 1006.5 hPa | 0 mm | - | - | - |
| 1778046042 | 10° C | 94% | 1006.6 hPa | 0 mm | - | - | - |
| 1778045681 | 10° C | 95% | 1006.6 hPa | 0 mm | - | - | - |
| 1778045324 | 10° C | 95% | 1006.6 hPa | 0 mm | - | - | - |
| 1778044962 | 10° C | 94% | 1006.5 hPa | 0 mm | - | - | - |
| 1778044601 | 10° C | 94% | 1006.4 hPa | 0 mm | - | - | - |
| 1778044240 | 10° C | 94% | 1006.3 hPa | 0 mm | - | - | - |
| 1778023437 | 10.56° C | 90% | 1007.8 hPa | 0 mm | - | - | - |
| 1778023077 | 11.11° C | 89% | 1007.8 hPa | 0 mm | - | - | - |
| 1778022715 | 11.11° C | 89% | 1007.9 hPa | 0 mm | - | - | - |
| 1778021996 | 11.11° C | 89% | 1008 hPa | 0 mm | - | - | - |
| 1778021635 | 11.11° C | 88% | 1008 hPa | 0 mm | - | - | - |
| 1778021275 | 11.11° C | 88% | 1008 hPa | 0 mm | - | - | - |
| 1778019834 | 11.67° C | 87% | 1008.2 hPa | 0 mm | - | - | - |
| 1778018812 | 11.67° C | 87% | 1008.2 hPa | 0 mm | - | - | - |
| 1778018753 | 11.67° C | 87% | 1008.2 hPa | 0 mm | - | - | - |
| 1778018032 | 11.67° C | 86% | 1008.3 hPa | 0 mm | - | - | - |
| 1778017312 | 11.67° C | 85% | 1008.4 hPa | 0 mm | - | - | - |
| 1778016230 | 12.22° C | 84% | 1008.5 hPa | 0 mm | - | - | - |
| 1778014789 | 12.78° C | 83% | 1008.8 hPa | 0 mm | - | - | - |
| 1778014429 | 12.78° C | 83% | 1008.9 hPa | 0 mm | - | - | - |
* Rain latest hour (hover to see other rain measurements)
** Current wind speed in m/s (hover to see current wind gust speed)